Weather History for Bangor, ME

Change the Weather History Date:

Friday, December 7, 2012

  Actual Average Record
Temperature  
Mean Temperature 28 °F 28 °F  
Max Temperature 40 °F 37 °F 65 °F (1998)
Min Temperature 15 °F 20 °F -15 °F (1964)
Degree Days  
Heating Degree Days 37 37  
Month to date heating degree days 235 247  
Since 1 July heating degree days 1850 1916  
Cooling Degree Days 0 0  
Month to date cooling degree days 0 0  
Year to date cooling degree days 395 318  
Moisture  
Dew Point 26 °F    
Average Humidity 82    
Maximum Humidity 100    
Minimum Humidity 64    
Precipitation  
Precipitation T in 0.13 in 1.91 in (1999)
Month to date precipitation 0.58 0.92  
Year to date precipitation 39.29 39.37  
Snow  
Snow 0.00 in 0.40 in 14.00 in (2003)
Month to date snowfall T 2.5  
Since 1 July snowfall 4.0 4.9  
Snow Depth 0.00 in    
Sea Level Pressure  
Sea Level Pressure 30.15 in    
Wind  
Wind Speed 2 mph (SSW)    
Max Wind Speed 16 mph    
Max Gust Speed 21 mph    
Visibility 10 miles    
Events Rain    
T = Trace of Precipitation, MM = Missing Value Source: NWS Daily Summary

Daily Weather History Graph

Daily Weather History Graph

Search for Another Location

Airport:

Trip Planner

Search our weather history database for the weather conditions in past years. The results will help you decide how hot, cold, wet, or windy it might be!

Date:

Astronomy

Dec. 07, 2012 Rise Set
Actual Time 6:59 AM EST 3:54 PM EST
Civil Twilight 6:26 AM EST 4:27 PM EST
Nautical Twilight 5:49 AM EST 5:04 PM EST
Astronomical Twilight 5:13 AM EST 5:40 PM EST
Moon 12:00 AM EST (12/7) 12:02 PM EST (12/7)
Length of Visible Light 10h 01m
Length of Day
8h 54m
Last Quarter, 39% of the Moon is Illuminated
Dec 7
Last Quarter
Dec 13
New
Dec 20
First Quarter
Dec 28
Full
Jan 4
Last Quarter

Hourly Weather History & Observations

Time (EST) Temp. Windchill Dew Point Humidity Pressure Visibility Wind Dir Wind Speed Gust Speed Precip Events Conditions
12:53 AM 19.0 °F - 16.0 °F 88% 30.30 in 10.0 mi Calm Calm - N/A   Scattered Clouds
1:53 AM 19.9 °F - 16.0 °F 85% 30.29 in 10.0 mi Calm Calm - N/A   Mostly Cloudy
2:53 AM 19.9 °F - 17.1 °F 89% 30.27 in 10.0 mi Calm Calm - N/A   Mostly Cloudy
3:53 AM 18.0 °F - 16.0 °F 92% 30.27 in 10.0 mi Calm Calm - N/A   Mostly Cloudy
4:53 AM 18.0 °F - 15.1 °F 88% 30.27 in 10.0 mi Calm Calm - N/A   Scattered Clouds
5:53 AM 19.0 °F - 17.1 °F 92% 30.27 in 10.0 mi Calm Calm - N/A   Mostly Cloudy
6:53 AM 21.9 °F - 19.0 °F 89% 30.26 in 10.0 mi Calm Calm - N/A   Overcast
7:53 AM 23.0 °F - 19.0 °F 85% 30.25 in 10.0 mi Calm Calm - N/A   Overcast
8:53 AM 26.1 °F - 21.0 °F 81% 30.23 in 10.0 mi Calm Calm - N/A   Overcast
9:53 AM 30.0 °F - 23.0 °F 75% 30.22 in 10.0 mi Calm Calm - N/A   Overcast
10:53 AM 34.0 °F 28.0 °F 26.1 °F 73% 30.19 in 10.0 mi SSW 6.9 mph - N/A   Mostly Cloudy
11:53 AM 36.0 °F 30.3 °F 26.1 °F 67% 30.16 in 10.0 mi SSW 6.9 mph - N/A   Mostly Cloudy
12:53 PM 37.9 °F 31.5 °F 26.1 °F 62% 30.14 in 10.0 mi SSW 9.2 mph - N/A   Mostly Cloudy
1:01 PM 37.4 °F 30.8 °F 26.6 °F 65% 30.13 in 10.0 mi South 9.2 mph - N/A   Mostly Cloudy
1:53 PM 39.0 °F 32.3 °F 28.0 °F 65% 30.12 in 10.0 mi SSW 10.4 mph - N/A   Mostly Cloudy
2:53 PM 39.0 °F 32.3 °F 28.9 °F 67% 30.12 in 10.0 mi SSW 10.4 mph 20.7 mph N/A   Mostly Cloudy
3:53 PM 37.9 °F 32.7 °F 28.9 °F 70% 30.09 in 10.0 mi SSE 6.9 mph - N/A   Mostly Cloudy
4:53 PM 37.0 °F 32.4 °F 30.0 °F 76% 30.08 in 10.0 mi South 5.8 mph - N/A   Mostly Cloudy
5:35 PM 37.4 °F 32.8 °F 30.2 °F 75% 30.07 in 10.0 mi South 5.8 mph - N/A   Mostly Cloudy
5:53 PM 39.0 °F 34.0 °F 32.0 °F 76% 30.08 in 10.0 mi South 6.9 mph - N/A   Mostly Cloudy
6:32 PM 39.2 °F 35.9 °F 33.8 °F 81% 30.06 in 10.0 mi SSW 4.6 mph - N/A   Scattered Clouds
6:53 PM 37.9 °F 35.5 °F 32.0 °F 79% 30.08 in 10.0 mi SSW 3.5 mph - N/A   Mostly Cloudy
7:53 PM 39.2 °F 35.9 °F 33.8 °F 81% 30.07 in 10.0 mi South 4.6 mph - N/A Rain Light Rain
8:53 PM 37.0 °F 33.3 °F 35.1 °F 93% 30.07 in 10.0 mi South 4.6 mph - 0.00 in   Overcast
9:53 PM 37.0 °F 34.5 °F 35.1 °F 93% 30.06 in 10.0 mi SSW 3.5 mph - 0.00 in Rain Light Rain
10:28 PM 35.6 °F 32.8 °F 35.6 °F 100% 30.05 in 10.0 mi South 3.5 mph - 0.00 in Rain Light Rain
10:53 PM 36.0 °F - 35.1 °F 97% 30.06 in 10.0 mi Calm Calm - 0.00 in Rain Light Rain
11:53 PM 35.1 °F - 34.0 °F 96% 30.04 in 8.0 mi Calm Calm - 0.00 in   Overcast